User: anonymous   Login
Location: Paralde Spring
(38.5794°N, 119.0140°W)
Time: 20:28:00
(UTC+00:00)
Language:

Cosmos 1733 Rocket - Orbit

View from above orbital plane
View from above orbital plane
View from above satellite
View from above satellite

Ground track
Ground track

The orbit data is extracted from the following two-line orbital elements,

1 16612U 86018B   20332.40062809  .00000134  00000-0  13096-4 0  9999
2 16612  82.5176 194.9188 0016684 320.7225 212.4243 14.84277916778237
Epoch (UTC): 27 November 2020 09:36:54
Eccentricity: 0.0016684
inclination: 82.5176°
perigee height: 604 km
apogee height: 627 km
right ascension of ascending node: 194.9188°
argument of perigee: 320.7225°
revolutions per day: 14.84277916
mean anomaly at epoch: 212.4243°
orbit number at epoch: 77823

The dashed part of the orbit path shows where the satellite is in the earth's shadow,  

DLR